Regional Weather Roundup
Issued by NWS Wakefield, VA

Home | Current Version | Previous Version | Text Only | Print | Product List | Glossary On
Versions: 1 2 3 4 5 6 7 8 9 10 11 12 13 14 15 16 17 18 19 20 21 22 23 24 25 26 27
000
ASUS41 KAKQ 220915
RWRAKQ

REGIONAL WEATHER ROUNDUP
NATIONAL WEATHER SERVICE WAKEFIELD VA
400 AM EST WED FEB 22 2017

Note: "fair" indicates few or no clouds below 12,000 feet with no
significant weather and/or obstructions to visibility. * = Denotes
station may not report precipitation (e.g., rain,snow,etc.),
thunder or fog.

VAZ042-051-052>054-056-221000-
NORTHERN VIRGINIA

CITY           SKY/WX    TMP DP  RH WIND       PRES   REMARKS
WASH NATIONAL  CLOUDY    46  40  79 S7        30.04F
DULLES         CLOUDY    46  37  71 CALM      30.02F
FORT BELVOIR   CLOUDY    45  38  75 SE3       30.03F
QUANTICO       CLOUDY    45  42  89 S6        30.05F
FREDERICKSBRG* CLOUDY    44  40  84 CALM      30.04S
STAFFORD*      CLOUDY    44  39  83 CALM      30.08S
WARRENTON      CLOUDY    49  38  64 S6        30.01F
CULPEPER*      CLOUDY    49  42  75 CALM      30.03S
MANASSAS*      CLOUDY    46  39  76 S3        30.03F
LEESBURG*      CLOUDY    46  41  81 MISG      30.03F
WINCHESTER     PTCLDY    43  36  75 CALM      29.99S
FRONT ROYAL*   CLOUDY    46  37  71 CALM      29.98S
LURAY*         CLOUDY    54  43  66 SW8       30.00S
$$

VAZ048-049-060>072-079>083-221000-
CENTRAL AND SOUTH CENTRAL VIRGINIA

CITY           SKY/WX    TMP DP  RH WIND       PRES   REMARKS
RICHMOND       CLOUDY    43  40  89 CALM      30.04F
CHESTERFIELD*  FAIR      43  25  49 CALM      30.06F
PETERSBURG*    CLOUDY    35  34  95 CALM      30.06F
HANOVER        PTCLDY    41  36  82 CALM      30.06S
TAPPAHANNOCK*  PTCLDY    38  38 100 CALM      30.06S
QUINTON*       FAIR      40  40 100 CALM      30.05F
CHARLOTTSVILLE CLOUDY    50  38  63 S6        30.01F
GORDONSVILLE*  CLOUDY    46  39  78 CALM      30.02S
ORANGE*        PTCLDY    46  39  76 CALM      30.03S
LOUISA*        CLOUDY    48  43  81 S3        30.01F
BUMPASS*       FAIR      43  40  87 CALM      30.04S
FARMVILLE*     PTCLDY    39  39  97 CALM      30.03F
CREWE*         FAIR      38  38 100 CALM      30.04F
FORT PICKETT*  CLOUDY   N/A N/A N/A CALM      30.05S
CHASE CITY*    CLOUDY    45  44  95 CALM      30.04F
CLARKSVILLE*   CLOUDY    46  45  93 CALM      30.04S
SOUTH HILL*    CLOUDY    45  44  96 CALM      30.10F
LAWRENCEVILLE* CLOUDY    46  43  90 CALM      30.05F
EMPORIA*       CLOUDY    43  41  93 CALM      30.07F
$$

VAZ088>098-221000-
SOUTHEAST VIRGINIA

CITY           SKY/WX    TMP DP  RH WIND       PRES   REMARKS
NORFOLK        CLOUDY    47  45  93 CALM      30.05F
VIRGINIA BEACH CLOUDY    47  45  93 CALM      30.06F
NORFOLK NAVAL  CLOUDY    48  44  86 S3        30.07F
WEST POINT*    CLOUDY    41  40  95 CALM      30.07F
SALUDA*        FAIR      42  41  99 CALM      30.06S
NEWPORT NEWS   CLOUDY    42  41  96 CALM      30.06F
LANGLEY AFB    PTCLDY    44  43  96 CALM      30.05F
FORT EUSTIS    CLOUDY    43  40  86 CALM      30.03F
WILLIAMSBURG*  CLOUDY    45  43  93 CALM      30.06F
HR EXEC AP*    CLOUDY    43  39  87 CALM      30.05F
FRANKLIN*      CLOUDY    42  40  94 CALM      30.06F
US460-WAKEFLD  CLOUDY    43  41  93 CALM      30.06F
$$

VAZ020-022-025-037-045-221000-
WEST CENTRAL AND SOUTHWEST VIRGINIA

CITY           SKY/WX    TMP DP  RH WIND       PRES   REMARKS
STAUNTON*      LGT RAIN  46  43  88 SE5       30.02F
WAYNESBORO*    CLOUDY    47  42  85 CALM      30.00F
HOT SPRINGS VA CLOUDY    45  37  76 W12       30.02F
LYNCHBURG      MOCLDY    43  38  82 CALM      30.04F
DANVILLE       CLOUDY    46  42  86 CALM      30.04S
SOUTH BOSTON*  PTSUNNY   43  42  95 CALM      30.04S
MARTINSVILLE   CLOUDY    39  37  89 CALM      30.06S
ROANOKE        CLOUDY    48  39  71 CALM      30.04F
BLACKSBURG     CLOUDY    47  39  74 CALM      30.05F
DUBLIN*        CLOUDY    48  41  76 CALM      30.04S
MARION*        CLOUDY    49  41  72 E3        30.04S
HILLSVILLE*    CLOUDY    47  39  73 S3        30.01F
RICHLANDS*     CLOUDY    52  42  67 SE3       29.99S
WISE*          DRIZZLE   54  43  66 CALM      30.00S
ABINGDON*      CLOUDY    55  42  60 E8        29.98F
$$

MDZ021>025-VAZ099-100-221000-
SOUTHERN MARYLAND AND THE DELMARVA PENINSULA

CITY           SKY/WX    TMP DP  RH WIND       PRES   REMARKS
PATUXENT RIVER PTCLDY    43  41  93 SE3       30.05F
BAY BRIDGE APT CLOUDY    45  39  81 S7        30.04F
LEONARDTOWN    PTCLDY    43  37  81 S3        30.06F
DOVER          CLOUDY    40  40 100 SE6       30.04F
GEORGETOWN     NOT AVBL
EASTON         CLOUDY    43  37  79 S3        30.08F
CAMBRIDGE      NOT AVBL
SALISBURY      PTCLDY    41  40  96 CALM      30.06F
OCEAN CITY     PTCLDY    41  38  89 CALM      30.07F
WALLOPS ISLAND MOCLDY    40  40 100 CALM      30.07F
ACCOMACK*      PTCLDY    41  40  96 CALM      30.06F
$$

NCZ012>017-030>032-221000-
NORTH CENTRAL AND EASTERN NORTH CAROLINA

CITY           SKY/WX    TMP DP  RH WIND       PRES   REMARKS
ROANOKE RAPIDS PTSUNNY   43  43 100 CALM      30.06R
RALEIGH        MOCLDY    52  47  83 SE6       30.03F
ELIZABETH CITY MOCLDY    50  50 100 S5        30.06F
AHOSKIE*         N/A     43  43  98 CALM      30.06S
EDENTON*       MOCLDY    47  45  94 CALM      30.06F
CURRITUCK*     MOCLDY    46  46 100 CALM      30.07S FOG
KILL DEVIL HLS NOT AVBL
MANTEO         MOCLDY    53  48  83 CALM      30.07S
CAPE HATTERAS  CLOUDY    57  49  74 CALM      30.06F
TARBORO*       NOT AVBL
GOLDSBORO      CLOUDY    47  47 100 CALM      30.02F
WASHINGTON     MOCLDY    45  44  95 E3        30.06F
GREENVILLE     CLOUDY    48  46  93 CALM      30.06F
NEW BERN       PTCLDY    47  47 100 CALM      30.06S FOG
WILMINGTON     PTCLDY    50  49  96 E3        30.03F
$$

VAZ048-221000-
ELSEWHERE

CITY           SKY/WX    TMP DP  RH WIND       PRES   REMARKS
HARRISBURG PA  CLOUDY    42  36  79 E3        30.03S
BALTIMORE      CLOUDY    44  39  82 CALM      30.04F
ANNAPOLIS      CLOUDY    45  41  86 S8        30.03F
ANDREWS AFB    PTCLDY    45  38  78 S8        30.02F
PHILADELPHIA   CLOUDY    42  36  79 CALM      30.06F
HENDERSON NC   MOCLDY    47  43  85 CALM      30.04S
GREENSBORO     CLOUDY    51  51 100 CALM      30.02F FOG
ROCKY MOUNT    CLOUDY    44  44 100 N3        30.05F
$$

VAZ100-221000-
MARINE

STATION/POSITION TIME  TEMP    WIND        PRES    WAVE   SWELL
                       AIR SEA DIR/SP/G            HT/PER HT/PER
                 (UTC) (F)     (DEG/KT/KT) (MB)    (FT/S) (FT/S)
CAPE MAY NJ      0842   44 43  150/  3/  4 1017.7S
LEWES DE         0848   43 42  180/  4/  7 1017.8F
OCEAN-CITY-INLET 0848   43 43  200/  3/  4 1018.4F
WACHAPREAGUE VA  0848   46 49   CALM  /  2 1018.0F
THOMAS POINT MD  0900   43 43  170/  8/  9   N/A
GOOSES REEF MD   0900   43 42  170/  8/ 10 1017.9    1
COVE POINT MD    0848   43     190/  8/ 10 1018.0F
SOLOMONS ISLAND  0848   43 43  150/  3/  4   N/A
BISHOPS HEAD MD  0848   44 47  160/  5/  5 1018.0F
PINEY POINT MD   0848          160/  5/  5   N/A
POTOMAC MD       0900   44 45  170/  4/  6 1016.7    0
CAMBRIDGE MD     0848   43 42  170/  3/  5 1016.8F
LEWISETTA VA     0848   45 47  180/  3/  3 1017.4F
RAPPAHANNOCK LGT 0848           60/  2/  2 1018.4F
YORK RVR RNG VA  0848   47     200/  4/  4 1017.0F
YORKTOWN VA      0848   45 46   CALM  /  1 1017.5F
JAMESTOWN VA     0900   46 49  170/  2/  4   N/A     0
DOMINION TERM VA 0848   49     120/  3/  4 1017.8F
KIPTOPEKE VA     0848      46  170/  5/  5   N/A
CHES BAY BRIDGE  0836   49 47  180/  5/  6 1017.8F
CAPE HENRY VA    0836   50     170/  8/ 10   N/A
WILLOUBY STN VA  0836   48     160/  3/  3 1018.7F
S CRANEY ISL VA  0836   49     160/  3/  4 1017.8F
CAPE HENRY BUOY  0842      48                N/A     3/ 7
OFFSHORE WE BUOY 0851      47                N/A     4/ 9   2/11
64NM E OF VA BCH 0850   55 53  140/  4/  4 1018.0F   4/ 9   3/ 9
DUCK PIER NC     0836   50 48  160/  7/  8 1017.6S
44100 DUCK FRF   0835      48                N/A     4/ 9
44056 DUCK FRF   0830      48                N/A     3/ 8
OREGON INLET NC  0848          130/  4/  5   N/A
HATTERAS NC      0836   62 58  150/  5/  8 1017.7F
DIAMOND SHLS NC  0850   63 74  140/  6/ 10 1018.3F   4/ 8   3/ 8
CAPE LOOKOUT NC  0900   62     120/  7/  7 1017.0F
$$




USA.gov is the U.S. government's official web portal to all federal, state and local government web resources and services.